This demonstration page uses our WeatherBlox Daily Observations layout. Learn more.

Hourly Observations for May 9, 2020

Temp ( °F °C ) Dew Point ( °F °C ) Humidity (%) Winds ( mph kmh ) Pressure ( in mb ) Visibility ( mi km ) Precip ( " mm )
12:15 am 00:15 Clear 37 3 32 0 81 81 NW 21 33 29.88 1012 10 16.0934 0 0
12:35 am 00:35 Clear 37 3 30 -1 75 75 NW 31 50 29.88 1012 10 16.0934 0 0
12:55 am 00:55 Partly Cloudy 37 3 28 -2 70 70 NNW 26 43 29.9 1012 10 16.0934 0 0
1:15 am 01:15 Partly Cloudy 37 3 28 -2 70 70 NNW 24 39 29.91 1013 10 16.0934 0 0
1:35 am 01:35 Partly Cloudy 37 3 27 -3 65 65 NNW 25 41 29.93 1013 10 16.0934 0 0
1:55 am 01:55 Clear 37 3 27 -3 65 65 N 24 39 29.94 1014 10 16.0934 0 0
2:15 am 02:15 Clear 36 2 27 -3 70 70 N 18 30 29.95 1014 10 16.0934 0 0
2:35 am 02:35 Clear 36 2 27 -3 70 70 N 10 17 29.96 1015 10 16.0934 0 0
2:55 am 02:55 Clear 36 2 27 -3 70 70 NNW 7 11 29.97 1015 10 16.0934 0 0
3:15 am 03:15 Partly Cloudy 36 2 27 -3 70 70 NNW 7 11 29.97 1015 10 16.0934 0 0
3:35 am 03:35 Clear 36 2 27 -3 70 70 NNW 5 7 29.98 1015 10 16.0934 0 0
3:55 am 03:55 Clear 36 2 25 -4 65 65 NNW 9 15 29.98 1015 10 16.0934 0 0
4:15 am 04:15 Clear 34 1 25 -4 70 70 NW 8 13 29.99 1016 10 16.0934 0 0
4:35 am 04:35 Clear 34 1 23 -5 65 65 NNW 14 22 30 1016 10 16.0934 0 0
4:55 am 04:55 Clear 34 1 23 -5 65 65 NW 9 15 30.01 1016 10 16.0934 0 0
5:15 am 05:15 Clear 34 1 21 -6 60 60 NNW 13 20 30.01 1016 10 16.0934 0 0
5:35 am 05:35 Clear 34 1 21 -6 60 60 NW 9 15 30.02 1017 10 16.0934 0 0
5:55 am 05:55 Clear 34 1 21 -6 60 60 NW 12 19 30.03 1017 10 16.0934 0 0
6:15 am 06:15 Sunny 34 1 21 -6 60 60 NW 15 24 30.03 1017 10 16.0934 0 0
6:35 am 06:35 Sunny 34 1 21 -6 60 60 NNW 15 24 30.04 1017 10 16.0934 0 0
6:55 am 06:55 Sunny 34 1 21 -6 60 60 NW 14 22 30.05 1018 10 16.0934 0 0
7:15 am 07:15 Sunny 34 1 21 -6 60 60 NW 9 15 30.06 1018 10 16.0934 0 0
7:35 am 07:35 Sunny 36 2 21 -6 56 56 NW 15 24 30.06 1018 10 16.0934 0 0
7:55 am 07:55 Sunny 36 2 21 -6 56 56 NW 15 24 30.07 1018 10 16.0934 0 0
8:15 am 08:15 Sunny 36 2 21 -6 56 56 NNW 16 26 30.08 1019 10 16.0934 0 0
8:35 am 08:35 Sunny 37 3 23 -5 56 56 NW 15 24 30.08 1019 10 16.0934 0 0
8:55 am 08:55 Sunny 37 3 21 -6 52 52 N 10 17 30.08 1019 10 16.0934 0 0
9:15 am 09:15 Sunny 39 4 21 -6 48 48 NW 17 28 30.08 1018 10 16.0934 0 0
9:35 am 09:35 Sunny 41 5 23 -5 49 49 NW 17 28 30.06 1018 10 16.0934 0 0
9:55 am 09:55 Partly Cloudy 41 5 23 -5 49 49 NW 20 31 30.07 1018 10 16.0934 0 0
10:15 am 10:15 Sunny 41 5 23 -5 49 49 NNW 18 30 30.07 1018 10 16.0934 0 0
10:35 am 10:35 Mostly Cloudy 43 6 23 -5 46 46 NW 15 24 30.07 1018 10 16.0934 0 0
10:55 am 10:55 Mostly Cloudy 45 7 25 -4 46 46 WNW 23 37 30.07 1018 10 16.0934 0 0
11:15 am 11:15 Cloudy 45 7 23 -5 42 42 NW 13 20 30.08 1019 10 16.0934 0 0
11:35 am 11:35 Cloudy 43 6 25 -4 49 49 WNW 14 22 30.08 1019 10 16.0934 0 0
11:55 am 11:55 Mostly Cloudy 45 7 25 -4 46 46 NW 16 26 30.08 1019 10 16.0934 0 0
12:15 pm 12:15 Cloudy 45 7 25 -4 46 46 WNW 20 31 30.07 1018 10 16.0934 0 0
12:35 pm 12:35 Mostly Cloudy 45 7 25 -4 46 46 NNW 14 22 30.07 1018 10 16.0934 0 0
12:55 pm 12:55 Cloudy 45 7 25 -4 46 46 NW 15 24 30.07 1018 10 16.0934 0 0
1:15 pm 13:15 Cloudy 46 8 27 -3 46 46 WNW 14 22 30.06 1018 10 16.0934 0 0
1:35 pm 13:35 Cloudy 45 7 27 -3 49 49 WNW 10 17 30.06 1018 10 16.0934 0 0
1:55 pm 13:55 Cloudy 45 7 27 -3 49 49 NW 15 24 30.06 1018 10 16.0934 0 0
2:15 pm 14:15 Cloudy 45 7 27 -3 49 49 WNW 16 26 30.06 1018 10 16.0934 0 0
2:35 pm 14:35 Cloudy 46 8 27 -3 46 46 WNW 18 30 30.06 1018 10 16.0934 0 0
2:55 pm 14:55 Cloudy 45 7 28 -2 53 53 NW 17 28 30.07 1018 10 16.0934 0 0
3:15 pm 15:15 Cloudy 45 7 28 -2 53 53 WNW 24 39 30.07 1018 10 16.0934 0 0
3:35 pm 15:35 Cloudy 45 7 30 -1 57 57 WNW 16 26 30.08 1019 10 16.0934 0 0
3:55 pm 15:55 Cloudy 48 9 30 -1 50 50 NNW 26 43 30.08 1019 10 16.0934 0 0
4:15 pm 16:15 Mostly Cloudy 46 8 27 -3 46 46 NW 18 30 30.08 1019 10 16.0934 0 0
4:35 pm 16:35 Cloudy 46 8 27 -3 46 46 NW 22 35 30.09 1019 10 16.0934 0 0
4:55 pm 16:55 Cloudy 46 8 25 -4 43 43 WNW 22 35 30.09 1019 10 16.0934 0 0
5:15 pm 17:15 Mostly Cloudy 46 8 25 -4 43 43 WNW 21 33 30.1 1019 10 16.0934 0 0
5:35 pm 17:35 Mostly Cloudy 46 8 25 -4 43 43 WNW 16 26 30.11 1020 10 16.0934 0 0
5:55 pm 17:55 Mostly Cloudy 45 7 23 -5 42 42 NW 22 35 30.11 1020 10 16.0934 0 0
6:15 pm 18:15 Cloudy 45 7 23 -5 42 42 NNW 20 31 30.12 1020 10 16.0934 0 0
6:35 pm 18:35 Cloudy 45 7 23 -5 42 42 NNW 23 37 30.13 1020 10 16.0934 0 0
6:55 pm 18:55 Mostly Cloudy 46 8 23 -5 40 40 NNW 14 22 30.14 1021 10 16.0934 0 0
7:15 pm 19:15 Mostly Cloudy 46 8 23 -5 40 40 NNW 18 30 30.14 1021 10 16.0934 0 0
7:35 pm 19:35 Mostly Cloudy 45 7 23 -5 42 42 NW 23 37 30.16 1021 10 16.0934 0 0
7:55 pm 19:55 Partly Cloudy 45 7 23 -5 42 42 NNW 15 24 30.17 1022 10 16.0934 0 0
8:15 pm 20:15 Clear 43 6 21 -6 42 42 NW 9 15 30.18 1022 10 16.0934 0 0
8:35 pm 20:35 Clear 41 5 21 -6 45 45 NW 8 13 30.2 1023 10 16.0934 0 0
8:55 pm 20:55 Partly Cloudy 39 4 23 -5 52 52 Calm 30.22 1023 10 16.0934 0 0
9:15 pm 21:15 Clear 39 4 27 -3 61 61 W 3 6 30.23 1024 10 16.0934 0 0
9:35 pm 21:35 Clear 39 4 23 -5 52 52 SW 3 6 30.23 1024 10 16.0934 0 0
9:55 pm 21:55 Clear 41 5 23 -5 49 49 S 3 6 30.23 1024 10 16.0934 0 0
10:15 pm 22:15 Clear 39 4 23 -5 52 52 SSW 5 7 30.24 1024 10 16.0934 0 0
10:35 pm 22:35 Clear 37 3 25 -4 60 60 SSW 6 9 30.25 1024 10 16.0934 0 0
10:55 pm 22:55 Clear 37 3 23 -5 56 56 W 3 6 30.25 1024 10 16.0934 0 0
11:15 pm 23:15 Clear 37 3 27 -3 65 65 W 3 6 30.25 1024 10 16.0934 0 0
11:35 pm 23:35 Clear 32 0 30 -1 93 93 W 5 7 30.25 1024 10 16.0934 0 0
11:55 pm 23:55 Clear 34 1 30 -1 87 87 Calm 30.25 1024 10 16.0934 0 0

Powered by AerisWeather